#timestamp,LO_Frequency,Hit,StdDev 
1671973215.3,286046999.6,N
1671973235.1,286046998.9,N
1671973236.0,286046998.9,N
1671973255.8,286047002.4,Y
1671973275.7,286047002.4,P
1671973295.5,286047000.6,N
1671973315.3,286046998.4,N
1671973335.2,286046998.9,N
1671973355.0,286047001.2,N
1671973355.9,286047001.2,N
1671973375.8,286047000.3,N
1671973395.6,286047000.2,N
1671973415.4,286047001.1,N
1671973435.3,286047000.9,N
1671973455.1,286046999.7,N
1671973475.8,286047001.6,N
1671973495.7,286047001.8,N
1671973515.5,286046998.7,N
1671973535.4,286046997.9,N
1671973555.2,286046997.6,N
1671973575.0,286046995.8,Y
1671973575.9,286046995.8,P
1671973595.8,286046997.6,N
1671973615.6,286046999.5,N
1671973635.5,286046999.1,N
1671973655.3,286046999.0,N
1671973675.1,286047001.2,N
1671973695.9,286047000.1,N
1671973715.7,286047001.1,N
1671973735.5,286047001.9,N
1671973755.4,286047002.2,N
1671973775.2,286047000.6,N
1671973795.1,286047000.2,N
1671973796.0,286047000.2,N
1671973815.8,286046999.8,N
1671973835.6,286047001.7,N
1671973855.5,286047001.8,N
1671973875.3,286047001.0,N
1671973895.2,286047001.1,N
1671973915.9,286047000.6,N
1671973935.7,286047002.2,N
1671973955.6,286047000.3,N
1671973975.4,286047002.1,N
1671973995.2,286047001.0,N
1671974015.1,286047001.0,N
1671974016.0,286047001.0,N
1671974035.8,286047000.7,N
1671974055.7,286047001.1,N
1671974075.5,286047002.3,N
1671974095.3,286047001.9,N
1671974115.2,286047000.6,N
1671974135.9,286047000.7,N
1671974155.7,286046998.5,N
1671974175.6,286046998.9,N
1671974195.4,286046998.6,N
1671974215.3,286047000.7,N
1671974235.1,286047000.7,N
1671974255.8,286046998.2,N
1671974275.7,286046998.8,N
1671974295.5,286046997.3,N
1671974315.4,286046998.0,N
1671974335.2,286046997.1,N
1671974355.0,286046997.1,N
1671974355.9,286046997.1,N
1671974375.8,286046998.6,N
1671974395.6,286047001.5,N
1671974415.4,286046999.8,N
1671974435.3,286047000.1,N
1671974455.1,286047001.9,N
1671974475.9,286047002.7,N
1671974495.7,286047000.4,N
1671974515.5,286047000.9,N
1671974535.4,286047000.3,N
1671974555.2,286047001.7,N
1671974575.0,286047001.7,N
1671974576.0,286047001.7,N
1671974595.8,286047002.1,N
1671974615.6,286047001.6,N
1671974635.5,286047002.6,N
1671974655.3,286047001.5,N
1671974675.1,286047004.0,N
1671974695.9,286047002.1,N
1671974715.7,286047002.4,N
1671974735.6,286047001.9,N
1671974755.4,286047002.7,N
1671974775.2,286047002.8,N
1671974795.1,286047002.7,N
1671974796.0,286047002.7,N
1671974815.8,286046999.8,N
1671974835.6,286046999.8,N
1671974855.5,286046999.8,N
1671974875.3,286047000.9,N
1671974895.2,286047000.6,N
1671974915.9,286047000.3,N
1671974935.7,286047000.7,N
1671974955.6,286047000.6,N
1671974975.4,286046998.3,N
1671974995.2,286046998.2,N
1671975015.1,286047000.7,N
1671975016.0,286047000.7,N
1671975035.8,286046998.3,N
1671975055.7,286047000.1,N
1671975075.5,286047000.3,N
1671975095.3,286047000.7,N
1671975115.2,286046998.2,N
1671975135.9,286047000.7,N
1671975155.7,286047001.1,N
1671975175.6,286047000.2,N
1671975195.4,286046998.6,N
1671975215.3,286046998.6,N
1671975235.1,286047000.7,N
1671975236.0,286047000.7,N
1671975255.8,286046996.5,N
1671975275.7,286046997.6,N
1671975295.5,286046996.9,N
1671975315.3,286046998.7,N
1671975335.2,286046998.7,N
1671975355.0,286046999.6,N
1671975355.9,286046999.6,N
1671975375.8,286047001.1,N
1671975395.6,286046998.2,N
1671975415.4,286046998.8,N
1671975435.3,286046999.5,N
1671975455.1,286047001.1,N
1671975475.8,286047002.8,N
1671975495.7,286046998.5,N
1671975515.5,286046998.7,N
1671975535.4,286046998.6,N
1671975555.2,286046999.0,N
1671975575.0,286047000.7,N
1671975575.9,286047000.7,N
1671975595.8,286047000.8,N
1671975615.6,286047000.3,N
1671975635.4,286047000.5,N
1671975655.3,286046998.2,N
1671975675.1,286046998.9,N
1671975695.9,286046998.7,N
1671975715.7,286046998.4,N
1671975735.5,286046999.3,N
1671975755.4,286046996.9,N
1671975775.2,286046999.3,N
1671975795.0,286047001.0,N
1671975795.9,286047001.0,N
1671975815.8,286047001.2,N
1671975835.6,286046999.3,N
1671975855.5,286046999.6,N
1671975875.3,286046998.7,N
1671975895.1,286047000.7,N
1671975915.9,286046998.8,N
1671975935.7,286047000.3,N
1671975955.5,286047001.0,N
1671975975.4,286046998.4,N
1671975995.2,286046996.7,N
1671976015.1,286046997.1,N
1671976016.0,286046997.1,N
1671976035.8,286046999.6,N
1671976055.6,286046996.5,N
1671976075.5,286046999.3,N
1671976095.3,286046998.4,N
1671976115.2,286047000.9,N
1671976135.9,286046998.4,N
1671976155.7,286046998.3,N
1671976175.6,286046998.6,N
1671976195.4,286046998.9,N
1671976215.2,286046999.2,N
1671976235.1,286046998.3,N
1671976236.0,286046998.3,N
1671976255.8,286046998.4,N
1671976275.7,286046999.1,N
1671976295.5,286046998.8,N
1671976315.3,286047000.1,N
1671976335.2,286047000.2,N
1671976355.0,286046998.3,N
1671976355.9,286046998.3,N
1671976375.7,286046998.5,N
1671976395.6,286047000.5,N
1671976415.4,286047002.6,N
1671976435.3,286047002.8,N
1671976455.1,286046999.9,N
1671976456.0,286046999.9,N
1671976475.8,286047001.0,N
1671976495.7,286046998.4,N
1671976515.5,286046999.9,N
1671976535.3,286046999.9,N
1671976555.2,286047000.7,N
1671976575.0,286047001.0,N
1671976575.9,286047001.0,N
1671976595.8,286046999.1,N
1671976615.6,286046998.9,N
1671976635.4,286046999.4,N
1671976655.3,286046998.9,N
1671976675.1,286046998.5,N
1671976695.8,286046999.3,N
1671976715.7,286046999.3,N
1671976735.5,286046996.9,N
1671976755.4,286046997.2,N
1671976775.2,286046996.8,N
1671976795.0,286046998.1,N
1671976795.9,286046998.1,N
